Dewpoint
48 48 48 49 49 50 51 51 51 52 52 52 53 53 54 55 53 42 43 48 51 56 56 45 38 30 31 29 31 31 19 14 18 20 22 27 27 26 29 28 28 33 37 38 41
48 47 48 48 49 49 50 51 51 52 52 52 52 53 54 54 46 41 47 52 54 57 44 34 31 29 28 28 27 25 20 19 26 27 27 28 29 31 29 30 36 37 38 40 42
48 47 47 48 48 49 50 50 51 51 52 52 52 54 55 52 39 38 50 52 56 56 46 38 34 31 26 26 25 28 22 26 30 33 32 30 30 32 34 35 36 36 39 40 40
49 48 47 48 48 49 50 50 50 51 52 52 53 54 55 47 33 37 53 54 56 44 39 36 34 25 23 23 25 27 31 32 34 34 33 31 32 32 36 36 38 40 39 39 39
49 48 47 48 48 49 50 50 50 51 52 51 53 55 47 36 35 38 51 50 43 40 38 35 29 26 23 25 28 28 30 32 32 33 32 32 33 33 37 39 40 40 40 40 41
49 48 47 48 48 49 49 49 50 51 51 51 53 54 44 34 38 39 41 45 43 40 38 38 35 31 31 30 26 28 30 30 31 35 33 33 34 36 37 39 39 40 40 41 41
50 48 48 48 48 49 49 49 50 50 50 51 52 46 35 34 38 38 40 44 44 43 40 41 40 33 32 31 32 29 28 29 32 34 34 35 34 34 38 39 38 39 40 40 40
50 49 48 48 49 49 48 49 49 49 48 49 52 42 33 39 37 38 40 44 44 42 42 41 41 35 32 33 30 27 30 28 31 33 34 34 30 34 38 38 37 38 40 40 40
52 50 48 48 49 49 48 49 48 47 45 49 40 36 33 42 37 38 39 41 43 42 42 38 40 34 35 34 30 30 23 25 30 32 32 32 30 35 38 38 36 38 40 40 41
52 50 49 49 49 48 48 46 46 44 41 34 24 30 32 32 37 37 40 40 42 40 40 38 36 30 30 31 21 24 24 28 28 32 32 32 31 33 37 37 36 37 39 39 41
52 50 49 49 48 47 42 36 32 29 28 28 30 31 33 35 38 39 40 40 41 37 29 34 30 25 28 31 32 28 27 29 30 33 31 33 31 31 37 37 35 35 38 39 40
52 50 50 49 47 46 42 31 33 33 24 29 31 32 33 35 34 37 40 37 35 28 29 31 26 30 32 32 32 29 29 23 29 35 31 29 30 35 36 36 34 34 36 37 38
53 51 50 48 45 41 37 36 40 38 25 26 29 31 33 36 33 34 37 37 31 28 30 29 30 33 33 31 28 30 27 25 25 29 33 29 28 33 36 37 34 33 34 34 37
53 51 50 46 35 38 35 40 41 38 27 23 24 30 33 35 31 35 36 36 31 27 29 30 32 32 31 28 26 24 28 27 28 28 21 25 17 28 34 35 33 31 31 31 34
53 52 50 44 40 33 39 40 38 38 17 21 25 31 31 31 32 34 36 35 29 28 28 27 30 30 28 26 26 27 29 28 29 28 24 20 20 26 33 32 31 30 30 30 32
53 52 48 39 40 39 39 35 39 24 14 15 26 28 28 28 29 33 32 33 33 28 27 27 29 27 26 27 26 28 28 29 29 26 18 15 20 20 28 32 33 29 29 29 30
53 51 43 39 35 41 39 38 23 15 20 14 21 26 25 24 26 29 29 28 23 16 19 25 26 27 27 25 28 28 26 21 17 16 15 15 17 19 31 35 31 28 28 28 29
51 46 42 41 42 41 39 29 8 18 18 21 22 23 20 22 24 28 25 23 27 25 21 22 20 25 26 25 24 25 22 16 6 13 7 15 9 13 33 36 29 28 28 28 29
46 40 39 41 42 40 33 21 19 19 23 20 20 18 18 20 20 25 24 26 25 26 20 17 17 26 28 29 28 24 18 22 20 15 18 15 15 23 32 34 32 27 28 27 28
40 38 38 42 40 38 31 20 19 30 21 22 16 18 11 18 18 22 23 24 25 28 28 23 17 24 28 28 28 28 25 21 22 2 5 9 6 5 26 29 32 30 27 27 27
37 32 39 41 39 33 23 16 23 22 22 19 22 15 20 20 20 23 19 24 27 28 28 24 22 22 26 24 21 26 24 20 19 17 12 6 6 13 20 25 31 31 27 27 27
36 29 38 39 30 29 20 22 24 19 25 21 21 20 21 21 25 22 21 22 26 28 25 28 25 20 22 26 27 27 23 21 17 14 14 15 6 19 24 25 31 31 28 28 27
34 33 38 36 24 18 19 18 22 20 22 22 20 22 22 21 16 23 24 26 27 28 26 25 19 12 21 25 25 22 25 24 21 19 15 15 8 24 25 28 31 29 28 27 26
35 27 33 33 31 22 17 16 15 22 23 23 20 21 19 16 22 22 23 25 26 31 33 31 24 21 18 20 25 21 23 24 20 18 15 17 11 13 20 24 26 27 28 27 25
34 31 27 23 25 29 23 21 19 17 22 22 21 20 19 16 19 20 24 24 25 32 29 24 9 17 17 17 17 15 17 23 22 18 14 15 15 16 15 18 25 28 27 27 25
33 31 32 27 22 28 26 19 17 18 22 19 18 21 24 19 18 20 23 22 19 28 26 26 12 14 9 16 14 16 16 18 21 22 21 20 20 21 21 20 21 26 27 26 26
41 38 33 27 22 24 25 23 20 20 22 20 21 23 20 23 25 26 26 26 26 25 21 20 12 11 11 14 14 14 15 12 15 18 18 17 19 21 18 19 19 25 28 26 26
Lifted_Index
16 16 16 16 16 16 15 15 15 15 14 14 14 13 13 12 13 13 13 12 11 11 11 12 13 12 12 11 11 9 7 6 6 7 8 9 10 10 10 10 9 9 10 10 11
16 16 16 16 16 16 15 15 15 15 14 14 14 13 13 12 13 13 13 12 11 11 12 12 12 12 11 11 10 9 7 7 8 8 8 9 9 9 9 8 8 8 9 10 10
15 16 16 16 16 16 15 15 15 15 14 14 14 13 13 12 11 12 13 12 11 11 12 13 12 11 10 10 10 9 8 8 9 9 9 8 8 8 7 7 7 8 9 10 10
15 15 16 16 16 15 15 15 15 14 14 14 13 13 13 11 10 12 13 12 12 12 12 12 12 10 9 9 9 9 9 9 9 9 8 8 8 8 7 7 7 8 9 9 9
14 15 15 16 15 15 15 15 14 14 14 14 13 13 12 11 11 12 13 13 13 13 13 12 11 10 9 9 9 9 9 9 9 9 8 8 8 8 7 7 8 8 8 8 8
14 15 15 15 15 15 15 15 14 14 14 14 13 13 12 11 12 13 13 13 13 13 13 12 12 11 10 9 9 9 9 8 8 8 8 8 8 7 8 7 7 7 7 7 7
14 14 15 15 15 15 15 15 14 14 14 14 13 13 12 12 13 14 13 13 13 13 13 12 12 11 10 9 9 9 8 7 7 8 8 8 7 7 8 7 7 6 5 5 6
14 14 15 15 15 15 15 15 15 15 15 14 14 12 12 13 14 14 13 13 12 12 12 12 12 11 10 9 8 7 6 5 6 7 8 7 7 7 7 7 6 5 4 4 4
13 14 14 15 15 15 15 15 15 15 15 15 14 12 11 13 14 13 13 13 12 12 12 11 11 10 9 8 6 5 4 4 5 7 7 7 6 7 7 7 6 5 4 4 3
13 14 14 14 15 15 15 15 15 14 14 14 12 11 11 12 13 13 13 13 12 11 10 10 9 8 7 6 5 4 4 4 5 7 7 7 6 6 6 6 6 5 4 3 3
13 13 14 14 15 15 16 14 12 11 12 11 11 11 12 13 13 13 13 12 11 10 9 8 7 7 7 7 6 5 4 4 5 7 7 6 6 6 6 6 6 5 4 3 3
13 13 13 14 15 16 15 14 12 11 9 10 11 12 13 13 13 13 12 11 10 9 8 7 6 7 8 7 7 5 4 4 5 7 7 6 5 6 6 6 7 6 4 3 3
12 12 13 14 15 15 15 14 15 13 9 8 11 13 13 13 12 12 12 11 9 8 7 7 7 8 8 7 6 5 5 4 5 5 6 5 5 5 6 7 7 7 6 4 4
12 12 13 14 15 14 14 16 16 13 7 6 9 12 13 13 12 12 12 11 9 8 7 7 8 8 8 7 7 6 6 6 5 4 4 4 4 5 6 7 8 8 8 7 6
11 12 13 15 15 14 15 16 15 10 5 5 9 11 12 12 12 12 13 12 10 8 8 8 8 8 8 8 8 8 7 6 5 4 3 3 3 4 6 7 7 9 9 9 8
11 12 14 15 15 15 16 15 12 6 4 5 7 9 10 10 11 12 11 11 9 8 7 8 9 9 9 9 10 9 7 5 4 3 3 3 3 4 6 7 8 9 10 10 10
11 12 14 15 15 16 15 12 7 4 3 5 6 7 8 9 10 10 9 9 8 6 6 6 7 9 9 9 9 9 6 4 2 1 2 3 4 4 6 7 8 9 10 11 11
12 12 14 15 16 15 13 7 4 3 4 5 6 6 7 8 8 8 7 7 7 6 5 4 5 8 9 9 8 8 6 4 2 1 2 3 4 5 7 8 8 9 10 11 11
12 12 14 16 17 15 10 5 4 4 5 5 5 5 6 7 7 7 7 7 7 7 5 4 5 7 9 9 9 8 7 5 3 2 2 3 4 5 7 7 8 9 10 10 11
11 12 15 17 17 14 8 5 4 6 7 6 5 5 5 6 6 6 6 6 7 7 7 5 5 7 8 9 8 8 7 6 4 2 1 2 3 5 6 7 8 8 9 10 10
11 12 15 17 15 11 7 5 5 7 8 7 6 6 6 6 6 6 6 6 7 7 7 6 5 6 7 7 8 7 7 6 5 3 2 2 3 5 7 7 8 8 9 10 10
11 12 15 16 12 8 6 5 6 7 8 8 7 7 7 7 6 6 5 6 8 7 6 6 5 5 5 6 7 7 7 6 5 4 3 2 4 6 8 8 8 9 9 9 10
10 11 14 14 10 6 5 5 6 7 8 8 8 8 8 7 6 5 5 6 8 7 6 6 5 4 4 5 7 7 6 6 6 5 4 3 4 7 8 8 9 9 9 9 10
9 9 11 12 9 6 5 4 5 6 8 9 9 8 8 7 6 5 5 6 7 7 7 6 5 4 4 5 6 6 6 6 6 5 4 4 5 6 8 8 8 9 9 10 10
8 7 8 8 7 5 4 4 4 5 8 8 8 8 7 6 5 5 5 5 6 7 7 6 5 5 5 5 5 5 5 6 5 5 4 5 5 7 8 8 9 9 9 10 10
7 7 7 6 5 4 4 4 3 5 6 7 7 7 6 5 5 5 5 5 5 5 5 5 5 5 5 5 5 5 5 5 6 6 5 5 6 7 8 9 9 9 9 10 10
8 8 7 6 5 4 4 4 3 4 6 7 7 6 6 5 5 5 5 5 5 5 5 5 5 4 4 5 5 4 4 5 6 6 5 5 6 7 8 8 8 9 9 10 10